Weather History for West Palm Beach, FL

Change the Weather History Date:

Wednesday, February 12, 2014

  Actual Average Record
Temperature  
Mean Temperature 73 °F 68 °F  
Max Temperature 83 °F 76 °F 87 °F (1975)
Min Temperature 62 °F 59 °F 33 °F (1919)
Degree Days  
Heating Degree Days 0 2  
Month to date heating degree days 0 24  
Since 1 July heating degree days 102 181  
Cooling Degree Days 8 4  
Month to date cooling degree days 120 48  
Year to date cooling degree days 242 156  
Growing Degree Days 22 (Base 50)    
Moisture  
Dew Point 63 °F    
Average Humidity 74    
Maximum Humidity 93    
Minimum Humidity 55    
Precipitation  
Precipitation 0.35 in 0.10 in 2.66 in (1984)
Month to date precipitation 0.77 1.14  
Year to date precipitation 11.19 4.27  
Snow  
Snow 0.00 in - - ()
Month to date snowfall 0.0  
Since 1 July snowfall 0.0  
Snow Depth 0.00 in    
Sea Level Pressure  
Sea Level Pressure 29.91 in    
Wind  
Wind Speed 10 mph (SSW)    
Max Wind Speed 29 mph    
Max Gust Speed 36 mph    
Visibility 9 miles    
Events Fog , Rain , Thunderstorm    
T = Trace of Precipitation, MM = Missing Value Source: NWS Daily Summary

Daily Weather History Graph

Daily Weather History Graph

Search for Another Location

Airport:

Trip Planner

Search our weather history database for the weather conditions in past years. The results will help you decide how hot, cold, wet, or windy it might be!

Date:

Astronomy

Feb. 12, 2014 Rise Set
Actual Time 6:58 AM EST 6:10 PM EST
Civil Twilight 6:34 AM EST 6:34 PM EST
Nautical Twilight 6:07 AM EST 7:01 PM EST
Astronomical Twilight 5:40 AM EST 7:29 PM EST
Moon 4:26 PM EST (2/12) 5:09 AM EST (2/12)
Length of Visible Light 11h 59m
Length of Day
11h 12m
Waxing Gibbous, 95% of the Moon is Illuminated
Feb 12
Waxing Gibbous
Feb 14
Full
Feb 22
Last Quarter
Mar 1
New
Mar 8
First Quarter

Hourly Weather History & Observations

Time (EST) Temp. Heat Index Dew Point Humidity Pressure Visibility Wind Dir Wind Speed Gust Speed Precip Events Conditions
12:53 AM 64.9 °F - 60.1 °F 84% 30.02 in 10.0 mi WNW 4.6 mph - N/A   Clear
1:53 AM 66.0 °F - 60.1 °F 81% 30.01 in 10.0 mi WSW 4.6 mph - N/A   Clear
2:53 AM 64.9 °F - 60.1 °F 84% 29.99 in 10.0 mi Calm Calm - N/A   Partly Cloudy
3:53 AM 63.0 °F - 60.1 °F 90% 29.99 in 10.0 mi Calm Calm - N/A   Scattered Clouds
4:53 AM 64.9 °F - 61.0 °F 87% 29.98 in 10.0 mi Calm Calm - N/A   Mostly Cloudy
5:00 AM 64.9 °F - 61.0 °F 87% 29.98 in 10.0 mi Calm Calm - N/A   Mostly Cloudy
5:37 AM 66.0 °F - 60.1 °F 81% 29.98 in 10.0 mi Calm Calm - N/A   Scattered Clouds
5:53 AM 66.0 °F - 60.1 °F 81% 29.98 in 10.0 mi Calm Calm - N/A   Partly Cloudy
6:53 AM 62.1 °F - 59.0 °F 90% 29.99 in 10.0 mi Calm Calm - N/A   Scattered Clouds
7:53 AM 64.9 °F - 61.0 °F 87% 30.01 in 10.0 mi Calm Calm - N/A   Scattered Clouds
8:53 AM 73.0 °F - 62.1 °F 68% 30.01 in 10.0 mi Calm Calm - N/A   Scattered Clouds
9:53 AM 79.0 °F - 66.0 °F 64% 30.01 in 10.0 mi South 11.5 mph - N/A   Scattered Clouds
10:53 AM 80.1 °F 82.1 °F 66.0 °F 62% 29.99 in 10.0 mi SSE 18.4 mph 24.2 mph N/A   Mostly Cloudy
11:53 AM 82.0 °F 83.8 °F 64.9 °F 56% 29.96 in 10.0 mi SE 24.2 mph 31.1 mph N/A   Mostly Cloudy
12:53 PM 82.0 °F 83.4 °F 64.0 °F 54% 29.92 in 10.0 mi SSE 17.3 mph 25.3 mph N/A   Mostly Cloudy
1:53 PM 80.1 °F 82.3 °F 66.9 °F 64% 29.89 in 10.0 mi SE 20.7 mph 27.6 mph N/A   Mostly Cloudy
2:19 PM 81.0 °F 83.3 °F 66.9 °F 62% 29.87 in 10.0 mi SE 20.7 mph - N/A   Mostly Cloudy
2:53 PM 80.1 °F 82.3 °F 66.9 °F 64% 29.86 in 10.0 mi SSE 21.9 mph 27.6 mph N/A   Mostly Cloudy
3:22 PM 80.1 °F 82.3 °F 66.9 °F 64% 29.85 in 10.0 mi SSE 23.0 mph 29.9 mph N/A   Mostly Cloudy
3:53 PM 79.0 °F - 66.9 °F 66% 29.83 in 10.0 mi SSE 18.4 mph 25.3 mph N/A   Mostly Cloudy
4:53 PM 78.1 °F - 66.9 °F 68% 29.83 in 10.0 mi SSE 20.7 mph 25.3 mph N/A   Mostly Cloudy
5:53 PM 77.0 °F - 68.0 °F 74% 29.82 in 10.0 mi SSE 19.6 mph 27.6 mph 0.00 in   Mostly Cloudy
6:53 PM 77.0 °F - 66.9 °F 71% 29.83 in 10.0 mi South 16.1 mph 24.2 mph N/A   Mostly Cloudy
7:53 PM 73.9 °F - 69.1 °F 85% 29.84 in 10.0 mi SSW 9.2 mph - 0.00 in Rain Light Rain
8:53 PM 73.9 °F - 68.0 °F 82% 29.84 in 10.0 mi South 8.1 mph - 0.00 in   Mostly Cloudy
9:45 PM 69.1 °F - 63.0 °F 81% 29.88 in 10.0 mi WNW 23.0 mph 35.7 mph 0.00 in Rain Light Rain
9:53 PM 64.9 °F - 61.0 °F 87% 29.88 in 4.0 mi WNW 18.4 mph 28.8 mph 0.02 in Rain Light Rain
9:56 PM 64.9 °F - 61.0 °F 87% 29.89 in 0.5 mi WNW 18.4 mph 28.8 mph N/A Fog , Rain Heavy Rain
10:03 PM 64.0 °F - 62.1 °F 93% 29.88 in 1.0 mi NW 20.7 mph 28.8 mph 0.17 in Rain Heavy Rain
10:09 PM 64.0 °F - 62.1 °F 93% 29.87 in 2.0 mi WNW 15.0 mph 27.6 mph 0.24 in Rain Heavy Rain
10:29 PM 64.0 °F - 61.0 °F 90% 29.86 in 5.0 mi WNW 10.4 mph - 0.30 in Rain Light Rain
10:45 PM 64.0 °F - 62.1 °F 93% 29.85 in 7.0 mi WSW 5.8 mph - 0.32 in Rain , Thunderstorm Light Thunderstorms and Rain
10:53 PM 64.0 °F - 61.0 °F 90% 29.83 in 10.0 mi WSW 4.6 mph - 0.32 in Rain , Thunderstorm Light Thunderstorms and Rain
11:13 PM 64.0 °F - 62.1 °F 93% 29.84 in 10.0 mi South 6.9 mph - 0.01 in Rain , Thunderstorm Light Thunderstorms and Rain
11:25 PM 64.0 °F - 62.1 °F 93% 29.84 in 10.0 mi South 8.1 mph - 0.01 in   Mostly Cloudy
11:53 PM 64.0 °F - 62.1 °F 93% 29.85 in 10.0 mi South 11.5 mph - 0.01 in Rain Light Rain